Погода в Трикале

Греция     39°33′20″N   21°46′04″E
темп.,
°C
ветер,
м/с
пор.,
м/с
влажн.,
%
обл.,
%
осадки,
мм/ч
давл.,
гПа
погр.,
м
21 апреля, ср
ср2100:00+8зюз22721 0.0 101729
03:00+7з22730 0.0 101824
06:00+6зсз22740 0.0 101823
09:00+11сз12620 0.0 1019302
12:00+16св22472 0.0 1019920
15:00+19св134126 0.0 10171758
18:00+18юз43423 0.0 10171342
21:00+12зюз34600 0.0 101948
22 апреля, чт
чт2200:00+10з22675 0.0 102123
03:00+9з226924 0.0 102115
06:00+8з1167100 0.0 102111
09:00+11ссз115945 0.0 1022175
12:00+16в214899 0.0 1022606
15:00+18в2241100 0.0 1020848
18:00+18зюз454999 0.0 1019720
21:00+13зюз3365100 0.0 102042
23 апреля, пт
пт2300:00+12зсз1166100 0.0 101913
03:00+12зюз1167100 0.0 101918
06:00+12ююз1172100 0.1 101920
09:00+13зсз1180100 1.3 1020132
12:00+16с1266100 0.4 1019591
15:00+19сз3451100 0.4 10191069
18:00+16сз1270100 0.3 1019250
21:00+13з2284100 1.3 102041
24 апреля, сб
сб2400:00+12зсз2293100 2.2 102074
03:00+12зсз2291100 2.3 101970
06:00+11сз2397100 7.8 1019187
09:00+11з1396100 15.4 1020223
12:00+10з2394100 8.9 1020268
15:00+10сз2393100 20.9 1020210
18:00+9сз2494100 7.4 1020269
21:00+9сз2492100 9.4 1021247
25 апреля, вс
вс2500:00+9зсз1390100 0.7 1021145
03:00+9сз1187100 0.8 102043
06:00+9зсз1186100 0.0 102032
09:00+10з1184100 0.1 102198
12:00+13с117271 0.0 1021599
15:00+15св116615 0.1 1020858
18:00+16вюв116316 0.0 1019828
21:00+13ююз117415 0.1 102012